Home   Weather   Beaumont   Past weeks

Flag for USA Past Weather in Beaumont, Texas, USA — Yesterday and Last 2 Weeks

Now
77 °F

Fog.


Feels Like: 78 °F
Forecast: 54 / 77 °F
Wind: 13 mph from Southwest

Location: Jefferson County Airport

Current Time: Apr 30, 2017 at 2:34:28 am

Latest Report: Apr 30, 2017 at 1:53 am


Visibility: 6 mi

Pressure: 29.69 "Hg

Humidity: 94%

Dew Point: 75 °F

Location of BeaumontLocation

Past Weather in Beaumont — Graph

°F

Beaumont Temperature Yesterday

Maximum temperature yesterday: 85 °F (at 1:53 pm)
Minimum temperature yesterday: 78 °F (at 2:31 am)
Average temperature yesterday: 80 °F

High & Low Weather Summary for the Past Weeks

 TemperatureHumidityPressure
High88 °F (Apr 22, 12:53 pm)97% (Apr 20, 6:04 am)30.11 "Hg (Apr 20, 6:04 am)
Low53 °F (Apr 23, 5:53 am)29% (Apr 24, 3:53 pm)29.52 "Hg (Apr 26, 6:01 pm)
Average74 °F76%29.88 "Hg
* Reported Apr 15 1:53 am — Apr 30 1:26 am, Beaumont, Weather by CustomWeather, © 2017

Note: Actual official high and low records may vary slightly from our data, if they occured in-between our weather recording intervals... More about our weather records

Advertising

Beaumont Weather History for the Previous 24 Hours

Scroll right to see more
 ConditionsComfort  
Time TempWeatherWind HumidityBarometerVisibility
1:26 am
Sun, Apr 30
78 °FLight rain. Fog.13 mph90%29.71 "Hg5 mi
1:11 am78 °FThundershowers. Fog.14 mph90%29.72 "Hg6 mi
12:53 am78 °FLight rain. Mostly cloudy.14 mph90%29.72 "Hg7 mi
12:43 am78 °FLight rain. Overcast.15 mph87%29.73 "Hg7 mi
12:25 am79 °FThundershowers. Overcast.15 mph84%29.73 "Hg8 mi
12:00 am79 °FThunderstorms. Overcast.16 mph84%29.73 "Hg8 mi
10:53 pm
Sat, Apr 29
80 °FMostly cloudy.16 mph81%29.72 "Hg8 mi
10:01 pm80 °FMostly cloudy.22 mph81%29.70 "Hg8 mi
8:53 pm79 °FMostly cloudy.22 mph84%29.65 "Hg8 mi
8:03 pm79 °FOvercast.22 mph84%29.64 "Hg8 mi
7:53 pm79 °FMostly cloudy.18 mph84%29.64 "Hg8 mi
6:53 pm80 °FMostly cloudy.25 mph81%29.65 "Hg7 mi
5:53 pm81 °FOvercast.26 mph79%29.65 "Hg7 mi
4:53 pm81 °FOvercast.25 mph79%29.66 "Hg8 mi
3:53 pm82 °FOvercast.30 mph77%29.67 "Hg8 mi
2:53 pm83 °FOvercast.29 mph74%29.68 "Hg8 mi
1:53 pm85 °FOvercast.32 mph70%29.67 "Hg8 mi
12:53 pm84 °FMostly cloudy.32 mph72%29.69 "Hg8 mi
11:53 am83 °FOvercast.26 mph74%29.72 "Hg7 mi
11:43 am83 °FOvercast.29 mph74%29.73 "Hg7 mi
11:01 am81 °FOvercast.23 mph79%29.73 "Hg6 mi
9:53 am79 °FThundershowers. Overcast.21 mph84%29.73 "Hg6 mi
8:53 am78 °FThunderstorms. Overcast.28 mph87%29.72 "Hg6 mi
6:53 am79 °FOvercast.31 mph82%29.73 "Hg7 mi
6:29 am79 °FOvercast.32 mph82%29.73 "Hg9 mi
6:18 am79 °FOvercast.26 mph82%29.73 "Hg9 mi
5:42 am79 °FOvercast.28 mph82%29.72 "Hg9 mi
4:53 am78 °FMostly cloudy.25 mph84%29.72 "Hg8 mi
3:53 am78 °FMostly cloudy.25 mph87%29.73 "Hg8 mi
2:53 am78 °FFog.23 mph87%29.74 "Hg6 mi
2:31 am78 °FLight rain. Fog.21 mph87%29.75 "Hg5 mi
Weather by CustomWeather, © 2017

See weather overviewHow to use our weather pages